Weather History for Rensselaer, IN

Change the Weather History Date:

Monday, February 18, 2013

  Actual Average (KVPZ) Record (KVPZ)
Temperature  
Mean Temperature 40 °F 28 °F  
Max Temperature 53 °F 36 °F 55 °F (2011)
Min Temperature 28 °F 21 °F -2 °F (2006)
Degree Days  
Heating Degree Days 24 37  
Month to date heating degree days 701  
Since 1 July heating degree days 4386  
Cooling Degree Days 0 0  
Month to date cooling degree days 0  
Year to date cooling degree days 0  
Moisture  
Dew Point 31 °F    
Average Humidity 71    
Maximum Humidity 100    
Minimum Humidity 50    
Precipitation  
Precipitation 0.05 in 0.05 in 0.50 in (2009)
Month to date precipitation 0.89  
Year to date precipitation 2.64  
Sea Level Pressure  
Sea Level Pressure 29.76 in    
Wind  
Wind Speed 16 mph (South)    
Max Wind Speed 26 mph    
Max Gust Speed 36 mph    
Visibility 10 miles    
Events Rain , Snow    
T = Trace of Precipitation, MM = Missing Value Source: NWS Daily Summary

Daily Weather History Graph

Daily Weather History Graph

Search for Another Location

Airport:

Trip Planner

Search our weather history database for the weather conditions in past years. The results will help you decide how hot, cold, wet, or windy it might be!

Date:

Astronomy

Feb. 18, 2013 Rise Set
Actual Time 6:38 AM CST 5:27 PM CST
Civil Twilight 6:10 AM CST 5:55 PM CST
Nautical Twilight 5:38 AM CST 6:27 PM CST
Astronomical Twilight 5:06 AM CST 6:59 PM CST
Moon 11:11 AM CST (2/18) 1:19 AM CST (2/18)
Length of Visible Light 11h 44m
Length of Day
10h 48m
First Quarter, 58% of the Moon is Illuminated
Feb 18
First Quarter
Feb 25
Full
Mar 4
Last Quarter
Mar 11
New
Mar 19
First Quarter

Hourly Weather History & Observations

Time (CST) Temp. Windchill Dew Point Humidity Pressure Visibility Wind Dir Wind Speed Gust Speed Precip Events Conditions
12:15 AM 28.4 °F 18.5 °F 14.0 °F 55% 30.06 in 10.0 mi SE 11.5 mph - N/A   Scattered Clouds
12:35 AM 28.4 °F 17.5 °F 15.8 °F 59% 30.05 in 10.0 mi SE 13.8 mph - N/A   Scattered Clouds
12:55 AM 30.2 °F 21.3 °F 15.8 °F 55% 30.04 in 10.0 mi SE 10.4 mph 16.1 mph N/A   Scattered Clouds
1:15 AM 30.2 °F 20.8 °F 15.8 °F 55% 30.03 in 10.0 mi SE 11.5 mph - N/A   Scattered Clouds
1:35 AM 30.2 °F 20.2 °F 17.6 °F 60% 30.02 in 10.0 mi SE 12.7 mph - N/A   Scattered Clouds
1:55 AM 30.2 °F 20.8 °F 17.6 °F 60% 30.01 in 10.0 mi SE 11.5 mph - N/A   Scattered Clouds
2:15 AM 30.2 °F 21.3 °F 17.6 °F 60% 30.00 in 10.0 mi SE 10.4 mph - N/A   Scattered Clouds
2:35 AM 30.2 °F 20.8 °F 17.6 °F 60% 29.99 in 10.0 mi ESE 11.5 mph 18.4 mph N/A   Scattered Clouds
2:55 AM 30.2 °F 21.3 °F 17.6 °F 60% 29.99 in 10.0 mi SE 10.4 mph - N/A   Scattered Clouds
3:15 AM 30.2 °F 20.2 °F 17.6 °F 60% 29.96 in 10.0 mi SE 12.7 mph - N/A   Clear
3:35 AM 30.2 °F 19.3 °F 17.6 °F 60% 29.95 in 10.0 mi SE 15.0 mph - N/A   Clear
3:55 AM 32.0 °F 22.1 °F 17.6 °F 55% 29.94 in 10.0 mi SE 13.8 mph 19.6 mph N/A   Clear
4:15 AM 32.0 °F 22.5 °F 19.4 °F 60% 29.93 in 10.0 mi SE 12.7 mph 21.9 mph N/A   Clear
4:35 AM 32.0 °F 22.5 °F 19.4 °F 60% 29.92 in 10.0 mi SE 12.7 mph 20.7 mph N/A   Scattered Clouds
5:15 AM 32.0 °F 21.6 °F 19.4 °F 60% 29.91 in 10.0 mi SE 15.0 mph 20.7 mph N/A   Scattered Clouds
5:35 AM 32.0 °F 21.2 °F 19.4 °F 60% 29.90 in 10.0 mi SSE 16.1 mph 21.9 mph N/A   Scattered Clouds
5:55 AM 32.0 °F 21.6 °F 19.4 °F 60% 29.89 in 10.0 mi SSE 15.0 mph 19.6 mph N/A   Clear
6:15 AM 32.0 °F 21.6 °F 19.4 °F 60% 29.89 in 10.0 mi SSE 15.0 mph 19.6 mph N/A   Clear
7:15 AM 32.0 °F 22.1 °F 21.2 °F 64% 29.87 in 10.0 mi SSE 13.8 mph - N/A   Clear
7:35 AM 32.0 °F 22.1 °F 21.2 °F 64% 29.86 in 10.0 mi SSE 13.8 mph - N/A   Clear
7:55 AM 33.8 °F 25.3 °F 23.0 °F 65% 29.85 in 10.0 mi SSE 11.5 mph - N/A   Clear
8:15 AM 35.6 °F 26.6 °F 23.0 °F 60% 29.85 in 10.0 mi SSE 13.8 mph 20.7 mph N/A   Clear
8:35 AM 37.4 °F 27.5 °F 26.6 °F 65% 29.85 in 10.0 mi South 18.4 mph 21.9 mph N/A   Clear
8:55 AM 41.0 °F 32.8 °F 26.6 °F 57% 29.84 in 10.0 mi South 16.1 mph 24.2 mph N/A   Clear
9:15 AM 41.0 °F 32.8 °F 28.4 °F 61% 29.82 in 10.0 mi SSE 16.1 mph 23.0 mph N/A   Clear
9:35 AM 42.8 °F 34.8 °F 30.2 °F 61% 29.82 in 10.0 mi South 17.3 mph 21.9 mph N/A   Clear
9:55 AM 44.6 °F 36.4 °F 30.2 °F 57% 29.81 in 10.0 mi South 20.7 mph 26.5 mph N/A   Clear
10:15 AM 46.4 °F 39.5 °F 32.0 °F 57% 29.81 in 10.0 mi South 17.3 mph 24.2 mph N/A   Clear
10:35 AM 48.2 °F - 32.0 °F 54% 29.80 in 10.0 mi South 20.7 mph 28.8 mph N/A   Clear
10:55 AM 50.0 °F - 32.0 °F 50% 29.79 in 10.0 mi South 19.6 mph 27.6 mph N/A   Clear
11:15 AM 50.0 °F - 33.8 °F 54% 29.79 in 10.0 mi South 18.4 mph 29.9 mph N/A   Clear
11:35 AM 50.0 °F - 33.8 °F 54% 29.79 in 10.0 mi South 26.5 mph 34.5 mph N/A   Clear
11:55 AM 50.0 °F - 35.6 °F 58% 29.77 in 10.0 mi South 23.0 mph 35.7 mph N/A   Clear
12:15 PM 53.6 °F - 35.6 °F 51% 29.76 in 10.0 mi SSW 23.0 mph 35.7 mph N/A   Clear
12:35 PM 51.8 °F - 37.4 °F 58% 29.75 in 10.0 mi SSW 26.5 mph 35.7 mph N/A   Clear
12:55 PM 51.8 °F - 37.4 °F 58% 29.74 in 10.0 mi South 20.7 mph 28.8 mph N/A   Mostly Cloudy
1:15 PM 51.8 °F - 39.2 °F 62% 29.73 in 10.0 mi South 21.9 mph 28.8 mph N/A   Overcast
1:35 PM 50.0 °F - 41.0 °F 71% 29.72 in 10.0 mi South 19.6 mph 28.8 mph N/A   Overcast
1:55 PM 50.0 °F - 41.0 °F 71% 29.71 in 10.0 mi South 17.3 mph 23.0 mph N/A   Overcast
2:15 PM 50.0 °F - 41.0 °F 71% 29.70 in 10.0 mi South 16.1 mph 24.2 mph N/A   Overcast
2:35 PM 50.0 °F - 41.0 °F 71% 29.69 in 10.0 mi South 19.6 mph 26.5 mph N/A   Overcast
2:55 PM 50.0 °F - 41.0 °F 71% 29.68 in 10.0 mi South 20.7 mph 29.9 mph N/A   Overcast
3:35 PM 50.0 °F - 41.0 °F 71% 29.67 in 10.0 mi South 21.9 mph 29.9 mph N/A   Overcast
3:55 PM 50.0 °F - 42.8 °F 76% 29.66 in 10.0 mi South 21.9 mph 27.6 mph N/A Rain Light Rain
4:15 PM 46.4 °F 39.5 °F 42.8 °F 87% 29.66 in 10.0 mi South 17.3 mph 26.5 mph N/A   Drizzle
4:35 PM 46.4 °F 39.5 °F 44.6 °F 93% 29.65 in 10.0 mi South 17.3 mph 23.0 mph N/A   Light Drizzle
5:15 PM 46.4 °F 38.7 °F 42.8 °F 87% 29.63 in 10.0 mi South 20.7 mph 35.7 mph N/A   Overcast
5:35 PM 46.4 °F 38.7 °F 42.8 °F 87% 29.62 in 10.0 mi South 20.7 mph 33.4 mph N/A   Overcast
5:55 PM 46.4 °F 38.7 °F 41.0 °F 81% 29.61 in 10.0 mi South 20.7 mph 33.4 mph N/A   Overcast
6:15 PM 46.4 °F 38.1 °F 41.0 °F 81% 29.60 in 10.0 mi South 24.2 mph 31.1 mph N/A   Overcast
6:55 PM 44.6 °F 35.7 °F 41.0 °F 87% 29.59 in 10.0 mi South 24.2 mph 34.5 mph N/A   Drizzle
7:15 PM 44.6 °F 35.5 °F 41.0 °F 87% 29.58 in 7.0 mi South 25.3 mph 34.5 mph N/A Rain Light Rain
7:35 PM 44.6 °F 36.4 °F 42.8 °F 93% 29.56 in 10.0 mi SSE 20.7 mph 34.5 mph 0.02 in Rain Light Rain
7:55 PM 44.6 °F 36.1 °F 42.8 °F 93% 29.55 in 10.0 mi South 21.9 mph 29.9 mph 0.02 in   Overcast
8:15 PM 44.6 °F 35.9 °F 42.8 °F 93% 29.54 in 10.0 mi South 23.0 mph 29.9 mph N/A Rain Light Rain
8:35 PM 44.6 °F 35.9 °F 42.8 °F 93% 29.53 in 10.0 mi South 23.0 mph 33.4 mph N/A Rain Light Rain
8:55 PM 44.6 °F 36.1 °F 42.8 °F 93% 29.51 in 10.0 mi South 21.9 mph 34.5 mph N/A Rain Light Rain
9:15 PM 44.6 °F 35.7 °F 42.8 °F 93% 29.50 in 10.0 mi South 24.2 mph 35.7 mph N/A Rain Light Rain
9:35 PM 44.6 °F 35.9 °F 42.8 °F 93% 29.49 in 10.0 mi South 23.0 mph 31.1 mph N/A Rain Light Rain
9:55 PM 44.6 °F 36.1 °F 42.8 °F 93% 29.48 in 7.0 mi South 21.9 mph 34.5 mph N/A Rain Light Rain
10:15 PM 44.6 °F 35.9 °F 42.8 °F 93% 29.48 in 10.0 mi South 23.0 mph 29.9 mph N/A Rain Light Rain
10:35 PM 41.0 °F 31.9 °F 37.4 °F 87% 29.51 in 5.0 mi West 19.6 mph 28.8 mph 0.02 in Rain Light Rain
10:55 PM 35.6 °F 23.2 °F 35.6 °F 100% 29.54 in 10.0 mi West 26.5 mph 32.2 mph 0.03 in Rain Rain
11:15 PM 33.8 °F 21.3 °F 32.0 °F 93% 29.56 in 0.8 mi West 24.2 mph 28.8 mph N/A Snow Light Snow
11:35 PM 33.8 °F 22.5 °F 32.0 °F 93% 29.58 in 5.0 mi West 19.6 mph 26.5 mph N/A Snow Light Snow
11:55 PM 32.0 °F 18.6 °F 32.0 °F 100% 29.60 in 10.0 mi West 25.3 mph 35.7 mph N/A   Overcast